Notices

What's New in latest Release from April 7th, 2021:

- Updated Glossary, including Speed of Maximum Gust, and Total Hourly Precipitation

- Updated national and regional climate services offices contacts and prices information

- Addition of station inventory lists for 1981-2010, 1971-2000, and 1961-1990 Normals.

If you haven't already, please take our survey and provide feedback about our website: https://eccc.sondage-survey.ca/f/LanguageSelection.aspx?s=442ca660-fcf1-47c0-95a9-59707d6fd709

Hourly Data Report for April 19, 2019

MIRAMICHI RCS
NEW BRUNSWICK
Current Station Operator: ECCC - MSC

47°00'34.000" N
65°27'54.000" W
33.00 m
8100989
71744
ACQ

Download Data

Hourly Data (April 2019)
Hourly Data Report for April 19, 2019
TIME
LST
Temp Definition
°C
Dew Point Definition
°C
Rel Hum Definition
%
Precip. Amount Definition
mm

Wind Dir Definition
10's deg

Wind Spd Definition
km/h
Visibility Definition
km
Stn Press Definition
kPa
Hmdx Definition


Wind Chill Definition


Weather Definition


00:00 3.4 0.1 79 0.2 17 23   101.19     LegendNANA
01:00 2.4 1.1 91 1.0 15 15   100.98     LegendNANA
02:00 2.3 1.3 93 2.4 16 15   100.79     LegendNANA
03:00 2.3 1.5 95 3.1 16 11   100.62     LegendNANA
04:00 2.5 1.7 95 0.9 16 13   100.36     LegendNANA
05:00 2.9 2.2 95 0.5 19 9   100.20     LegendNANA
06:00 3.8 3.2 96 0.6 20 9   100.13     LegendNANA
07:00 6.0 5.2 95 0.3 22 23   100.04     LegendNANA
08:00 6.8 6.1 96 0.3 23 23   100.02     LegendNANA
09:00 7.7 6.9 95 0.5 24 24   100.08     LegendNANA
10:00 8.8 8.0 95 0.2 24 24   100.06     LegendNANA
11:00 10.3 9.0 92 0.0 24 25   100.04     LegendNANA
12:00 11.9 9.6 86 0.0 24 22   100.06     LegendNANA
13:00 11.7 9.7 87 0.0 24 23   100.15     LegendNANA
14:00 12.2 10.0 86 0.0 24 20   100.17     LegendNANA
15:00 13.1 10.4 84 0.0 25 14   100.15     LegendNANA
16:00 13.0 10.5 85 0.0 22 15   100.21     LegendNANA
17:00 12.4 10.6 89 0.0 23 10   100.23     LegendNANA
18:00 12.0 10.8 92 0.0 25 4   100.28     LegendNANA
19:00 9.5 8.9 96 1.0 4 6   100.43     LegendNANA
20:00 7.8 7.4 97 0.5 5 5   100.55     LegendNANA
21:00 7.1 6.5 96 0.9 8 8   100.65     LegendNANA
22:00 6.7 5.8 94 0.7 2 9   100.73     LegendNANA
23:00 6.2 5.4 95 0.7 36 4   100.81     LegendNANA

Notes on Data Quality.

Legend

  • E = Estimated
  • M = Missing
  • NA = Not Available*
  • [empty] = Indicates an unobserved value
Date modified: